,,PressureMeas_1m,,PRMeasQMR101_1,,RHStat155_1m_1,,SRMeasQMS101R_1m,,TAStat155_1m_1,,GenWind_1,,GenWind_1,
2019-11-04, 07:00:06,VALID,919.728,VALID,0.0,VALID,94.007,VALID,134.314,VALID,17.826,VALID,86.0,VALID,0.0,
2019-11-04, 07:01:06,VALID,919.756,VALID,0.0,VALID,93.247,VALID,141.857,VALID,17.943,VALID,89.0,VALID,0.0,
2019-11-04, 07:02:06,VALID,919.778,VALID,0.0,VALID,93.197,VALID,148.628,VALID,18.065,VALID,94.0,VALID,0.0,
2019-11-04, 07:03:06,VALID,919.807,VALID,0.0,VALID,92.371,VALID,153.974,VALID,18.156,VALID,94.0,VALID,0.0,
2019-11-04, 07:04:06,VALID,919.831,VALID,0.0,VALID,93.269,VALID,157.927,VALID,18.319,VALID,104.0,VALID,0.0,
2019-11-04, 07:05:06,VALID,919.86,VALID,0.0,VALID,92.377,VALID,162.297,VALID,18.426,VALID,116.0,VALID,0.0,
2019-11-04, 07:06:06,VALID,919.866,VALID,0.0,VALID,91.869,VALID,166.865,VALID,18.343,VALID,121.0,VALID,0.0,
2019-11-04, 07:07:06,VALID,919.891,VALID,0.0,VALID,92.28,VALID,169.776,VALID,18.104,VALID,114.0,VALID,0.0,
2019-11-04, 07:08:06,VALID,919.9,VALID,0.0,VALID,93.568,VALID,172.087,VALID,17.903,VALID,113.0,VALID,0.0,
2019-11-04, 07:09:06,VALID,919.915,VALID,0.0,VALID,95.046,VALID,175.622,VALID,17.883,VALID,105.0,VALID,0.0,
2019-11-04, 07:10:06,VALID,919.933,VALID,0.0,VALID,95.601,VALID,181.84,VALID,17.997,VALID,100.0,VALID,0.0,
2019-11-04, 07:11:06,VALID,919.939,VALID,0.0,VALID,94.945,VALID,186.895,VALID,18.154,VALID,94.0,VALID,0.0,
2019-11-04, 07:12:06,VALID,919.95,VALID,0.0,VALID,93.584,VALID,188.9,VALID,18.364,VALID,99.0,VALID,0.0,
2019-11-04, 07:13:06,VALID,919.973,VALID,0.0,VALID,93.316,VALID,189.275,VALID,18.616,VALID,88.0,VALID,0.0,
2019-11-04, 07:14:06,VALID,919.967,VALID,0.0,VALID,93.113,VALID,192.322,VALID,18.909,VALID,69.0,VALID,0.0,
2019-11-04, 07:15:06,VALID,919.98,VALID,0.0,VALID,90.209,VALID,197.668,VALID,19.068,VALID,78.0,VALID,0.0,
2019-11-04, 07:16:06,VALID,919.974,VALID,0.0,VALID,89.243,VALID,201.554,VALID,19.118,VALID,74.0,VALID,0.0,
2019-11-04, 07:17:06,VALID,919.963,VALID,0.0,VALID,89.41,VALID,206.316,VALID,19.248,VALID,89.0,VALID,0.0,
2019-11-04, 07:18:06,VALID,919.966,VALID,0.0,VALID,88.557,VALID,209.408,VALID,19.365,VALID,82.0,VALID,0.0,
2019-11-04, 07:19:06,VALID,919.979,VALID,0.0,VALID,87.509,VALID,212.78,VALID,19.454,VALID,84.0,VALID,0.0,
2019-11-04, 07:20:06,VALID,919.992,VALID,0.0,VALID,88.448,VALID,216.501,VALID,19.56,VALID,72.0,VALID,0.0,
2019-11-04, 07:21:06,VALID,919.979,VALID,0.0,VALID,88.654,VALID,222.569,VALID,19.771,VALID,108.0,VALID,0.0,
2019-11-04, 07:22:06,VALID,919.999,VALID,0.0,VALID,86.304,VALID,226.515,VALID,19.86,VALID,118.0,VALID,0.0,
2019-11-04, 07:23:06,VALID,919.985,VALID,0.0,VALID,86.301,VALID,233.922,VALID,19.865,VALID,111.0,VALID,0.0,
2019-11-04, 07:24:06,VALID,920.014,VALID,0.0,VALID,86.442,VALID,237.834,VALID,19.899,VALID,108.0,VALID,0.0,
2019-11-04, 07:25:06,VALID,920.005,VALID,0.0,VALID,84.866,VALID,241.793,VALID,19.897,VALID,111.0,VALID,0.0,
2019-11-04, 07:26:06,VALID,920.019,VALID,0.0,VALID,85.18,VALID,245.592,VALID,19.922,VALID,107.0,VALID,0.0,
2019-11-04, 07:27:06,VALID,920.026,VALID,0.0,VALID,85.611,VALID,249.193,VALID,19.987,VALID,110.0,VALID,0.0,
2019-11-04, 07:28:06,VALID,920.017,VALID,0.0,VALID,85.268,VALID,250.903,VALID,20.105,VALID,110.0,VALID,0.0,
2019-11-04, 07:29:06,VALID,920.004,VALID,0.0,VALID,85.266,VALID,255.415,VALID,20.255,VALID,121.0,VALID,0.0,
2019-11-04, 07:30:06,VALID,920.01,VALID,0.0,VALID,83.953,VALID,258.433,VALID,20.452,VALID,125.0,VALID,0.0,
2019-11-04, 07:31:06,VALID,920.012,VALID,0.0,VALID,83.354,VALID,260.643,VALID,20.643,VALID,108.0,VALID,0.0,
2019-11-04, 07:32:06,VALID,920.056,VALID,0.0,VALID,82.529,VALID,263.686,VALID,20.801,VALID,93.0,VALID,0.0,
2019-11-04, 07:33:06,VALID,920.061,VALID,0.0,VALID,83.273,VALID,266.982,VALID,20.933,VALID,69.0,VALID,0.0,
2019-11-04, 07:34:06,VALID,920.078,VALID,0.0,VALID,82.764,VALID,273.621,VALID,21.017,VALID,55.0,VALID,0.0,
2019-11-04, 07:35:06,VALID,920.08,VALID,0.0,VALID,82.907,VALID,275.58,VALID,21.116,VALID,39.0,VALID,0.0,
2019-11-04, 07:36:06,VALID,920.086,VALID,0.0,VALID,82.736,VALID,275.186,VALID,21.3,VALID,45.0,VALID,0.0,
2019-11-04, 07:37:06,VALID,920.093,VALID,0.0,VALID,80.905,VALID,277.205,VALID,21.346,VALID,51.0,VALID,0.0,
2019-11-04, 07:38:06,VALID,920.102,VALID,0.0,VALID,81.95,VALID,281.89,VALID,21.362,VALID,57.0,VALID,0.0,
2019-11-04, 07:39:06,VALID,920.114,VALID,0.0,VALID,81.013,VALID,286.942,VALID,21.511,VALID,85.0,VALID,0.0,
2019-11-04, 07:40:06,VALID,920.14,VALID,0.0,VALID,78.648,VALID,282.269,VALID,21.641,VALID,98.0,VALID,0.0,
2019-11-04, 07:41:06,VALID,920.135,VALID,0.0,VALID,76.442,VALID,270.98,VALID,21.566,VALID,99.0,VALID,0.0,
2019-11-04, 07:42:06,VALID,920.126,VALID,0.0,VALID,77.286,VALID,273.64,VALID,21.585,VALID,97.0,VALID,0.0,
2019-11-04, 07:43:06,VALID,920.129,VALID,0.0,VALID,78.367,VALID,276.512,VALID,21.677,INVALID,360.0,VALID,0.0,
2019-11-04, 07:44:06,VALID,920.139,VALID,0.0,VALID,79.74,VALID,282.236,VALID,21.64,INVALID,360.0,VALID,0.0,
2019-11-04, 07:45:06,VALID,920.146,VALID,0.0,VALID,79.76,VALID,297.363,VALID,21.635,INVALID,360.0,VALID,0.0,
2019-11-04, 07:46:06,VALID,920.168,VALID,0.0,VALID,79.286,VALID,294.877,VALID,21.566,INVALID,360.0,VALID,0.0,
2019-11-04, 07:47:06,VALID,920.164,VALID,0.0,VALID,79.318,VALID,294.764,VALID,21.494,INVALID,360.0,VALID,0.0,
2019-11-04, 07:48:06,VALID,920.164,VALID,0.0,VALID,79.633,VALID,290.04,VALID,21.513,INVALID,360.0,VALID,0.0,
2019-11-04, 07:49:06,VALID,920.177,VALID,0.0,VALID,79.61,VALID,290.011,VALID,21.658,INVALID,360.0,VALID,0.0,
2019-11-04, 07:50:06,VALID,920.182,VALID,0.0,VALID,78.505,VALID,294.435,VALID,21.778,INVALID,360.0,VALID,0.0,
2019-11-04, 07:51:06,VALID,920.177,VALID,0.0,VALID,78.609,VALID,302.368,VALID,21.773,INVALID,360.0,VALID,0.0,
2019-11-04, 07:52:06,VALID,920.176,VALID,0.0,VALID,79.285,VALID,293.343,VALID,21.819,INVALID,360.0,VALID,0.0,
2019-11-04, 07:53:06,VALID,920.166,VALID,0.0,VALID,79.381,VALID,280.943,VALID,21.808,VALID,130.0,VALID,0.0,
2019-11-04, 07:54:06,VALID,920.161,VALID,0.0,VALID,78.78,VALID,273.656,VALID,21.777,INVALID,360.0,VALID,0.0,
2019-11-04, 07:55:06,VALID,920.168,VALID,0.0,VALID,78.797,VALID,274.147,VALID,21.741,VALID,97.0,VALID,0.0,
2019-11-04, 07:56:06,VALID,920.156,VALID,0.0,VALID,77.913,VALID,284.305,VALID,21.743,VALID,121.0,VALID,0.0,
2019-11-04, 07:57:06,VALID,920.163,VALID,0.0,VALID,77.553,VALID,309.399,VALID,21.664,VALID,121.0,VALID,0.0,
2019-11-04, 07:58:06,VALID,920.155,VALID,0.0,VALID,78.948,VALID,334.858,VALID,21.728,VALID,94.0,VALID,0.0,
2019-11-04, 07:59:06,VALID,920.153,VALID,0.0,VALID,78.004,VALID,356.119,VALID,21.961,VALID,110.0,VALID,0.0,
2019-11-04, 08:00:06,VALID,920.156,VALID,0.0,VALID,76.759,VALID,365.054,VALID,22.103,VALID,98.0,VALID,0.0,
2019-11-04, 08:01:06,VALID,920.125,VALID,0.0,VALID,75.439,VALID,374.701,VALID,22.232,VALID,83.0,VALID,0.0,
2019-11-04, 08:02:06,VALID,920.112,VALID,0.0,VALID,76.387,VALID,374.048,VALID,22.348,VALID,55.0,VALID,0.0,
2019-11-04, 08:03:06,VALID,920.099,VALID,0.0,VALID,77.378,VALID,387.822,VALID,22.389,VALID,23.0,VALID,0.0,
2019-11-04, 08:04:06,VALID,920.086,VALID,0.0,VALID,76.123,VALID,391.08,VALID,22.472,INVALID,360.0,VALID,0.0,
2019-11-04, 08:05:06,VALID,920.085,VALID,0.0,VALID,74.611,VALID,397.36,VALID,22.484,INVALID,360.0,VALID,0.0,
2019-11-04, 08:06:06,VALID,920.08,VALID,0.0,VALID,74.342,VALID,413.524,VALID,22.495,INVALID,360.0,VALID,0.0,
2019-11-04, 08:07:06,VALID,920.09,VALID,0.0,VALID,73.251,VALID,418.115,VALID,22.349,INVALID,360.0,VALID,0.0,
2019-11-04, 08:08:06,VALID,920.079,VALID,0.0,VALID,74.003,VALID,422.625,VALID,22.026,INVALID,360.0,VALID,0.0,
2019-11-04, 08:09:06,VALID,920.077,VALID,0.0,VALID,76.917,VALID,424.199,VALID,21.834,INVALID,360.0,VALID,0.0,
2019-11-04, 08:10:06,VALID,920.071,VALID,0.0,VALID,78.127,VALID,427.553,VALID,21.716,INVALID,360.0,VALID,0.0,
2019-11-04, 08:11:06,VALID,920.075,VALID,0.0,VALID,77.699,VALID,430.333,VALID,21.607,INVALID,360.0,VALID,0.0,
2019-11-04, 08:12:06,VALID,920.07,VALID,0.0,VALID,77.374,VALID,432.67,VALID,21.497,INVALID,360.0,VALID,0.0,
2019-11-04, 08:13:06,VALID,920.077,VALID,0.0,VALID,76.134,VALID,434.481,VALID,21.375,INVALID,360.0,VALID,0.0,
2019-11-04, 08:14:06,VALID,920.109,VALID,0.0,VALID,76.554,VALID,438.31,VALID,21.24,INVALID,360.0,VALID,0.0,
2019-11-04, 08:15:06,VALID,920.101,VALID,0.0,VALID,77.244,VALID,439.965,VALID,21.152,INVALID,360.0,VALID,0.0,
2019-11-04, 08:16:06,VALID,920.127,VALID,0.0,VALID,77.976,VALID,440.271,VALID,21.243,INVALID,360.0,VALID,0.0,
2019-11-04, 08:17:06,VALID,920.13,VALID,0.0,VALID,76.684,VALID,440.615,VALID,21.392,INVALID,360.0,VALID,0.0,
2019-11-04, 08:18:06,VALID,920.148,VALID,0.0,VALID,74.876,VALID,445.841,VALID,21.377,INVALID,360.0,VALID,0.0,
2019-11-04, 08:19:06,VALID,920.16,VALID,0.0,VALID,76.934,VALID,448.515,VALID,21.367,INVALID,360.0,VALID,0.0,
2019-11-04, 08:20:06,VALID,920.175,VALID,0.0,VALID,76.208,VALID,457.705,VALID,21.42,INVALID,360.0,VALID,0.0,
2019-11-04, 08:21:06,VALID,920.188,VALID,0.0,VALID,75.731,VALID,463.934,VALID,21.487,INVALID,360.0,VALID,0.0,
2019-11-04, 08:22:06,VALID,920.182,VALID,0.0,VALID,76.41,VALID,466.674,VALID,21.593,INVALID,360.0,VALID,0.0,
2019-11-04, 08:23:06,VALID,920.212,VALID,0.0,VALID,75.72,VALID,468.256,VALID,21.635,INVALID,360.0,VALID,0.0,
2019-11-04, 08:24:06,VALID,920.217,VALID,0.0,VALID,74.477,VALID,469.076,VALID,21.713,INVALID,360.0,VALID,0.0,
2019-11-04, 08:25:06,VALID,920.199,VALID,0.0,VALID,73.476,VALID,468.969,VALID,21.852,INVALID,360.0,VALID,0.0,
2019-11-04, 08:26:06,VALID,920.216,VALID,0.0,VALID,72.315,VALID,480.362,VALID,22.121,INVALID,360.0,VALID,0.0,
2019-11-04, 08:27:06,VALID,920.208,VALID,0.0,VALID,71.221,VALID,474.399,VALID,22.607,INVALID,360.0,VALID,0.0,
2019-11-04, 08:28:06,VALID,920.23,VALID,0.0,VALID,70.41,VALID,469.991,VALID,22.766,INVALID,360.0,VALID,0.0,
2019-11-04, 08:29:06,VALID,920.212,VALID,0.0,VALID,69.701,VALID,434.067,VALID,22.75,INVALID,360.0,VALID,0.0,
2019-11-04, 08:30:06,VALID,920.218,VALID,0.0,VALID,69.872,VALID,427.519,VALID,22.855,INVALID,360.0,VALID,0.0,
2019-11-04, 08:31:06,VALID,920.205,VALID,0.0,VALID,69.749,VALID,426.742,VALID,22.817,INVALID,360.0,VALID,0.0,
2019-11-04, 08:32:06,VALID,920.204,VALID,0.0,VALID,70.309,VALID,461.83,VALID,22.81,INVALID,360.0,VALID,0.0,
2019-11-04, 08:33:06,VALID,920.211,VALID,0.0,VALID,70.294,VALID,429.912,VALID,22.965,INVALID,360.0,VALID,0.0,
2019-11-04, 08:34:06,VALID,920.185,VALID,0.0,VALID,69.462,VALID,385.125,VALID,23.153,INVALID,360.0,VALID,0.0,
2019-11-04, 08:35:06,VALID,920.177,VALID,0.0,VALID,68.806,VALID,420.746,VALID,23.22,INVALID,360.0,VALID,0.0,
2019-11-04, 08:36:06,VALID,920.174,VALID,0.0,VALID,68.541,VALID,473.846,VALID,23.35,INVALID,360.0,VALID,0.0,
2019-11-04, 08:37:06,VALID,920.154,VALID,0.0,VALID,68.369,VALID,512.855,VALID,23.433,INVALID,360.0,VALID,0.0,
2019-11-04, 08:38:06,VALID,920.155,VALID,0.0,VALID,67.118,VALID,513.441,VALID,23.505,INVALID,360.0,VALID,0.0,
2019-11-04, 08:39:06,VALID,920.149,VALID,0.0,VALID,67.518,VALID,513.482,VALID,23.581,INVALID,360.0,VALID,0.0,
2019-11-04, 08:40:06,VALID,920.151,VALID,0.0,VALID,68.212,VALID,508.555,VALID,23.625,INVALID,360.0,VALID,0.0,
2019-11-04, 08:41:06,VALID,920.146,VALID,0.0,VALID,69.185,VALID,509.322,VALID,23.425,INVALID,360.0,VALID,0.0,
2019-11-04, 08:42:06,VALID,920.153,VALID,0.0,VALID,70.372,VALID,512.798,VALID,23.512,INVALID,360.0,VALID,0.0,
2019-11-04, 08:43:06,VALID,920.146,VALID,0.0,VALID,69.744,VALID,519.371,VALID,23.506,INVALID,360.0,VALID,0.0,
2019-11-04, 08:44:06,VALID,920.154,VALID,0.0,VALID,70.869,VALID,517.92,VALID,23.274,INVALID,360.0,VALID,0.0,
2019-11-04, 08:45:06,VALID,920.165,VALID,0.0,VALID,71.629,VALID,508.807,VALID,23.234,INVALID,360.0,VALID,0.0,
2019-11-04, 08:46:06,VALID,920.159,VALID,0.0,VALID,71.331,VALID,506.877,VALID,23.157,INVALID,360.0,VALID,0.0,
2019-11-04, 08:47:06,VALID,920.18,VALID,0.0,VALID,69.634,VALID,496.004,VALID,23.278,INVALID,360.0,VALID,0.0,
2019-11-04, 08:48:06,VALID,920.195,VALID,0.0,VALID,69.655,VALID,501.85,VALID,23.448,INVALID,360.0,VALID,0.0,
2019-11-04, 08:49:06,VALID,920.214,VALID,0.0,VALID,68.992,VALID,506.345,VALID,23.292,INVALID,360.0,VALID,0.0,
2019-11-04, 08:50:06,VALID,920.231,VALID,0.0,VALID,69.686,VALID,537.819,VALID,23.186,INVALID,360.0,VALID,0.0,
2019-11-04, 08:51:06,VALID,920.243,VALID,0.0,VALID,69.33,VALID,562.597,VALID,23.416,INVALID,360.0,VALID,0.0,
2019-11-04, 08:52:06,VALID,920.242,VALID,0.0,VALID,67.838,VALID,575.387,VALID,23.686,INVALID,360.0,VALID,0.0,
2019-11-04, 08:53:06,VALID,920.234,VALID,0.0,VALID,62.721,VALID,593.977,VALID,23.695,INVALID,360.0,VALID,0.0,
2019-11-04, 08:54:06,VALID,920.241,VALID,0.0,VALID,64.876,VALID,595.123,VALID,23.581,INVALID,360.0,VALID,0.0,
2019-11-04, 08:55:06,VALID,920.246,VALID,0.0,VALID,63.617,VALID,613.099,VALID,23.561,INVALID,360.0,VALID,0.0,
2019-11-04, 08:56:06,VALID,920.249,VALID,0.0,VALID,66.113,VALID,621.467,VALID,23.539,INVALID,360.0,VALID,0.0,
2019-11-04, 08:57:06,VALID,920.252,VALID,0.0,VALID,68.623,VALID,616.643,VALID,23.82,INVALID,360.0,VALID,0.0,
2019-11-04, 08:58:06,VALID,920.246,VALID,0.0,VALID,67.677,VALID,618.603,VALID,23.832,INVALID,360.0,VALID,0.0,
2019-11-04, 08:59:06,VALID,920.247,VALID,0.0,VALID,67.793,VALID,624.488,VALID,23.714,INVALID,360.0,VALID,0.0,
2019-11-04, 09:00:06,VALID,920.232,VALID,0.0,VALID,69.107,VALID,626.767,VALID,23.633,INVALID,360.0,VALID,0.0,
2019-11-04, 09:01:06,VALID,920.231,VALID,0.0,VALID,70.533,VALID,637.612,VALID,23.44,INVALID,360.0,VALID,0.0,
2019-11-04, 09:02:06,VALID,920.228,VALID,0.0,VALID,70.067,VALID,649.367,VALID,23.323,INVALID,360.0,VALID,0.0,
2019-11-04, 09:03:06,VALID,920.235,VALID,0.0,VALID,69.767,VALID,640.721,VALID,23.128,INVALID,360.0,VALID,0.0,
2019-11-04, 09:04:06,VALID,920.213,VALID,0.0,VALID,72.448,VALID,637.199,VALID,23.008,INVALID,360.0,VALID,0.0,
2019-11-04, 09:05:06,VALID,920.224,VALID,0.0,VALID,71.06,VALID,649.241,VALID,23.18,INVALID,360.0,VALID,0.0,
2019-11-04, 09:06:06,VALID,920.222,VALID,0.0,VALID,68.986,VALID,655.532,VALID,23.383,INVALID,360.0,VALID,0.0,
2019-11-04, 09:07:06,VALID,920.234,VALID,0.0,VALID,69.427,VALID,660.168,VALID,23.459,INVALID,360.0,VALID,0.0,
2019-11-04, 09:08:06,VALID,920.232,VALID,0.0,VALID,69.535,VALID,669.003,VALID,23.659,INVALID,360.0,VALID,0.0,
2019-11-04, 09:09:06,VALID,920.255,VALID,0.0,VALID,67.879,VALID,672.435,VALID,23.905,INVALID,360.0,VALID,0.0,
2019-11-04, 09:10:06,VALID,920.253,VALID,0.0,VALID,66.71,VALID,679.58,VALID,24.063,VALID,290.0,VALID,0.0,
2019-11-04, 09:11:06,VALID,920.258,VALID,0.0,VALID,62.894,VALID,682.244,VALID,24.024,VALID,280.0,VALID,0.0,
2019-11-04, 09:12:06,VALID,920.251,VALID,0.0,VALID,64.086,VALID,684.914,VALID,24.008,VALID,269.0,VALID,0.0,
2019-11-04, 09:13:06,VALID,920.249,VALID,0.0,VALID,64.415,VALID,687.585,VALID,23.683,VALID,273.0,VALID,0.0,
2019-11-04, 09:14:06,VALID,920.23,VALID,0.0,VALID,65.953,VALID,688.922,VALID,23.441,VALID,279.0,VALID,0.0,
2019-11-04, 09:15:06,VALID,920.234,VALID,0.0,VALID,66.397,VALID,688.992,VALID,23.552,VALID,300.0,VALID,0.0,
2019-11-04, 09:16:06,VALID,920.23,VALID,0.0,VALID,64.954,VALID,670.773,VALID,23.794,VALID,273.0,VALID,0.0,
2019-11-04, 09:17:06,VALID,920.231,VALID,0.0,VALID,64.438,VALID,666.221,VALID,23.785,VALID,244.0,VALID,0.0,
2019-11-04, 09:18:06,VALID,920.231,VALID,0.0,VALID,63.963,VALID,655.122,VALID,23.907,VALID,242.0,VALID,0.0,
2019-11-04, 09:19:06,VALID,920.224,VALID,0.0,VALID,63.524,VALID,649.344,VALID,23.998,VALID,264.0,VALID,0.0,
2019-11-04, 09:20:06,VALID,920.196,VALID,0.0,VALID,60.35,VALID,637.532,VALID,23.928,VALID,271.0,VALID,0.0,
2019-11-04, 09:21:06,VALID,920.183,VALID,0.0,VALID,60.344,VALID,657.419,VALID,24.065,VALID,305.0,VALID,0.0,
2019-11-04, 09:22:06,VALID,920.168,VALID,0.0,VALID,62.11,VALID,660.635,VALID,24.427,VALID,306.0,VALID,0.0,
2019-11-04, 09:23:06,VALID,920.151,VALID,0.0,VALID,62.489,VALID,685.637,VALID,24.683,VALID,232.0,VALID,0.0,
2019-11-04, 09:24:06,VALID,920.139,VALID,0.0,VALID,59.912,VALID,691.943,VALID,24.746,VALID,215.0,VALID,0.0,
2019-11-04, 09:25:06,VALID,920.132,VALID,0.0,VALID,59.085,VALID,705.968,VALID,24.832,VALID,223.0,VALID,0.0,
2019-11-04, 09:26:06,VALID,920.133,VALID,0.0,VALID,57.995,VALID,703.528,VALID,24.942,INVALID,360.0,VALID,0.0,
2019-11-04, 09:27:06,VALID,920.127,VALID,0.0,VALID,57.646,VALID,698.981,VALID,25.19,VALID,87.0,VALID,0.0,
2019-11-04, 09:28:06,VALID,920.131,VALID,0.0,VALID,56.598,VALID,690.309,VALID,25.485,VALID,41.0,VALID,0.0,
2019-11-04, 09:29:06,VALID,920.125,VALID,0.0,VALID,56.515,VALID,701.443,VALID,25.638,VALID,232.0,VALID,0.0,
2019-11-04, 09:30:06,VALID,920.138,VALID,0.0,VALID,58.588,VALID,707.369,VALID,25.298,VALID,318.0,VALID,0.0,
2019-11-04, 09:31:06,VALID,920.154,VALID,0.0,VALID,59.767,VALID,704.105,VALID,25.281,VALID,346.0,VALID,0.0,
2019-11-04, 09:32:06,VALID,920.171,VALID,0.0,VALID,57.569,VALID,706.897,VALID,25.126,VALID,283.0,VALID,0.0,
2019-11-04, 09:33:06,VALID,920.19,VALID,0.0,VALID,59.938,VALID,703.918,VALID,24.883,VALID,282.0,VALID,0.0,
2019-11-04, 09:34:06,VALID,920.221,VALID,0.0,VALID,57.471,VALID,695.71,VALID,24.94,VALID,272.0,VALID,0.0,
2019-11-04, 09:35:06,VALID,920.221,VALID,0.0,VALID,56.896,VALID,684.561,VALID,25.18,VALID,314.0,VALID,0.0,
2019-11-04, 09:36:06,VALID,920.223,VALID,0.0,VALID,56.419,VALID,696.086,VALID,25.408,INVALID,360.0,VALID,0.0,
2019-11-04, 09:37:06,VALID,920.237,VALID,0.0,VALID,56.152,VALID,689.468,VALID,25.413,VALID,282.0,VALID,0.0,
2019-11-04, 09:38:06,VALID,920.217,VALID,0.0,VALID,55.251,VALID,702.72,VALID,25.36,VALID,297.0,VALID,0.0,
2019-11-04, 09:39:06,VALID,920.236,VALID,0.0,VALID,55.585,VALID,711.168,VALID,25.309,VALID,279.0,VALID,0.0,
2019-11-04, 09:40:06,VALID,920.247,VALID,0.0,VALID,57.174,VALID,708.987,VALID,25.231,VALID,274.0,VALID,0.0,
2019-11-04, 09:41:06,VALID,920.233,VALID,0.0,VALID,57.316,VALID,703.586,VALID,25.273,VALID,311.0,VALID,0.0,
2019-11-04, 09:42:06,VALID,920.241,VALID,0.0,VALID,57.576,VALID,707.898,VALID,25.418,VALID,282.0,VALID,0.0,
2019-11-04, 09:43:06,VALID,920.242,VALID,0.0,VALID,56.689,VALID,728.895,VALID,25.497,INVALID,360.0,VALID,0.0,
2019-11-04, 09:44:06,VALID,920.234,VALID,0.0,VALID,57.023,VALID,747.153,VALID,25.394,INVALID,360.0,VALID,0.0,
2019-11-04, 09:45:06,VALID,920.246,VALID,0.0,VALID,57.507,VALID,752.822,VALID,25.323,INVALID,360.0,VALID,0.0,
2019-11-04, 09:46:06,VALID,920.249,VALID,0.0,VALID,58.518,VALID,758.735,VALID,25.411,VALID,285.0,VALID,0.0,
2019-11-04, 09:47:06,VALID,920.251,VALID,0.0,VALID,58.568,VALID,764.853,VALID,25.56,VALID,267.0,VALID,0.0,
2019-11-04, 09:48:06,VALID,920.249,VALID,0.0,VALID,58.064,VALID,770.631,VALID,25.698,INVALID,360.0,VALID,0.0,
2019-11-04, 09:49:06,VALID,920.256,VALID,0.0,VALID,59.379,VALID,774.353,VALID,25.844,INVALID,360.0,VALID,0.0,
2019-11-04, 09:50:06,VALID,920.268,VALID,0.0,VALID,59.086,VALID,776.313,VALID,25.972,INVALID,360.0,VALID,0.0,
2019-11-04, 09:51:06,VALID,920.27,VALID,0.0,VALID,56.425,VALID,778.338,VALID,25.918,VALID,298.0,VALID,0.0,
2019-11-04, 09:52:06,VALID,920.284,VALID,0.0,VALID,57.151,VALID,773.665,VALID,26.027,VALID,27.0,VALID,0.0,
2019-11-04, 09:53:06,VALID,920.309,VALID,0.0,VALID,57.369,VALID,763.091,VALID,26.223,VALID,329.0,VALID,0.0,
2019-11-04, 09:54:06,VALID,920.314,VALID,0.0,VALID,57.209,VALID,762.278,VALID,25.945,VALID,315.0,VALID,0.0,
2019-11-04, 09:55:06,VALID,920.329,VALID,0.0,VALID,57.956,VALID,776.614,VALID,26.003,VALID,31.0,VALID,0.0,
2019-11-04, 09:56:06,VALID,920.338,VALID,0.0,VALID,56.348,VALID,782.588,VALID,26.239,VALID,49.0,VALID,0.0,
2019-11-04, 09:57:06,VALID,920.334,VALID,0.0,VALID,55.02,VALID,782.495,VALID,26.6,VALID,174.0,VALID,0.0,
2019-11-04, 09:58:06,VALID,920.335,VALID,0.0,VALID,54.943,VALID,789.555,VALID,26.715,INVALID,360.0,VALID,0.0,
2019-11-04, 09:59:06,VALID,920.329,VALID,0.0,VALID,54.84,VALID,790.489,VALID,26.564,VALID,248.0,VALID,0.0,
2019-11-04, 10:00:06,VALID,920.321,VALID,0.0,VALID,55.724,VALID,794.545,VALID,26.315,VALID,231.0,VALID,0.0,
2019-11-04, 10:01:06,VALID,920.317,VALID,0.0,VALID,58.883,VALID,804.113,VALID,26.027,VALID,253.0,VALID,0.0,
2019-11-04, 10:02:06,VALID,920.349,VALID,0.0,VALID,60.928,VALID,823.535,VALID,25.954,VALID,287.0,VALID,0.0,
2019-11-04, 10:03:06,VALID,920.356,VALID,0.0,VALID,58.5,VALID,836.93,VALID,25.888,VALID,265.0,VALID,0.0,
2019-11-04, 10:04:06,VALID,920.378,VALID,0.0,VALID,58.274,VALID,841.469,VALID,25.606,VALID,308.0,VALID,0.0,
2019-11-04, 10:05:06,VALID,920.388,VALID,0.0,VALID,58.407,VALID,847.874,VALID,25.625,VALID,320.0,VALID,0.0,
2019-11-04, 10:06:06,VALID,920.383,VALID,0.0,VALID,58.347,VALID,859.541,VALID,25.843,VALID,238.0,VALID,0.0,
2019-11-04, 10:07:06,VALID,920.394,VALID,0.0,VALID,57.009,VALID,849.046,VALID,25.901,VALID,235.0,VALID,0.0,
2019-11-04, 10:08:06,VALID,920.391,VALID,0.0,VALID,58.353,VALID,875.402,VALID,25.852,VALID,319.0,VALID,0.0,
2019-11-04, 10:09:06,VALID,920.4,VALID,0.0,VALID,59.107,VALID,881.18,VALID,26.034,VALID,14.0,VALID,0.0,
2019-11-04, 10:10:06,VALID,920.415,VALID,0.0,VALID,57.232,VALID,881.828,VALID,26.334,VALID,307.0,VALID,0.0,
2019-11-04, 10:11:06,VALID,920.428,VALID,0.0,VALID,56.974,VALID,897.029,VALID,26.483,VALID,95.0,VALID,0.0,
2019-11-04, 10:12:06,VALID,920.457,VALID,0.0,VALID,55.83,VALID,906.042,VALID,26.75,VALID,281.0,VALID,0.0,
2019-11-04, 10:13:06,VALID,920.477,VALID,0.0,VALID,56.273,VALID,902.665,VALID,26.846,VALID,336.0,VALID,0.0,
2019-11-04, 10:14:06,VALID,920.488,VALID,0.0,VALID,53.305,VALID,897.737,VALID,26.753,VALID,212.0,VALID,0.0,
2019-11-04, 10:15:06,VALID,920.49,VALID,0.0,VALID,55.124,VALID,884.935,VALID,26.579,VALID,216.0,VALID,0.0,
2019-11-04, 10:16:06,VALID,920.475,VALID,0.0,VALID,57.517,VALID,898.83,VALID,26.804,VALID,252.0,VALID,0.0,
2019-11-04, 10:17:06,VALID,920.486,VALID,0.0,VALID,54.741,VALID,916.581,VALID,26.897,VALID,197.0,VALID,0.0,
2019-11-04, 10:18:06,VALID,920.5,VALID,0.0,VALID,56.724,VALID,909.464,VALID,26.962,VALID,332.0,VALID,0.0,
2019-11-04, 10:19:06,VALID,920.504,VALID,0.0,VALID,54.098,VALID,913.108,VALID,27.132,VALID,272.0,VALID,0.0,
2019-11-04, 10:20:06,VALID,920.509,VALID,0.0,VALID,53.446,VALID,883.24,VALID,27.091,VALID,303.0,VALID,0.0,
2019-11-04, 10:21:06,VALID,920.519,VALID,0.0,VALID,51.432,VALID,834.454,VALID,27.019,VALID,286.0,VALID,0.0,
2019-11-04, 10:22:06,VALID,920.529,VALID,0.0,VALID,52.615,VALID,826.577,VALID,26.896,VALID,258.0,VALID,0.0,
2019-11-04, 10:23:06,VALID,920.515,VALID,0.0,VALID,53.537,VALID,751.291,VALID,26.827,VALID,230.0,VALID,0.0,
2019-11-04, 10:24:06,VALID,920.527,VALID,0.0,VALID,54.891,VALID,726.686,VALID,26.614,VALID,261.0,VALID,0.0,
2019-11-04, 10:25:06,VALID,920.523,VALID,0.0,VALID,55.781,VALID,760.018,VALID,26.562,VALID,339.0,VALID,0.0,
2019-11-04, 10:26:06,VALID,920.511,VALID,0.0,VALID,56.037,VALID,804.543,VALID,26.642,VALID,34.0,VALID,0.0,
2019-11-04, 10:27:06,VALID,920.524,VALID,0.0,VALID,54.928,VALID,888.105,VALID,26.667,VALID,337.0,VALID,0.0,
2019-11-04, 10:28:06,VALID,920.498,VALID,0.0,VALID,53.432,VALID,875.546,VALID,26.595,VALID,3.0,VALID,0.0,
2019-11-04, 10:29:06,VALID,920.49,VALID,0.0,VALID,55.321,VALID,974.452,VALID,26.379,VALID,351.0,VALID,0.0,
2019-11-04, 10:30:06,VALID,920.503,VALID,0.0,VALID,56.481,VALID,931.042,VALID,26.214,VALID,329.0,VALID,0.0,
2019-11-04, 10:31:06,VALID,920.496,VALID,0.0,VALID,57.293,VALID,847.153,VALID,26.605,VALID,3.0,VALID,0.0,
2019-11-04, 10:32:06,VALID,920.503,VALID,0.0,VALID,54.306,VALID,817.968,VALID,26.996,VALID,150.0,VALID,0.0,
2019-11-04, 10:33:06,VALID,920.51,VALID,0.0,VALID,53.847,VALID,888.469,VALID,27.248,VALID,200.0,VALID,0.0,
2019-11-04, 10:34:06,VALID,920.517,VALID,0.0,VALID,51.507,VALID,889.721,VALID,27.503,VALID,155.0,VALID,0.0,
2019-11-04, 10:35:06,VALID,920.51,VALID,0.0,VALID,50.234,VALID,851.148,VALID,27.314,VALID,238.0,VALID,0.0,
2019-11-04, 10:36:06,VALID,920.511,VALID,0.0,VALID,51.702,VALID,831.234,VALID,26.708,VALID,276.0,VALID,0.0,
2019-11-04, 10:37:06,VALID,920.501,VALID,0.0,VALID,51.702,VALID,776.342,VALID,26.584,VALID,253.0,VALID,0.0,